When you browse on this site, cookies collect data to enhance your experience and personalize the content and advertising you see.
Visit our Privacy Policy to learn more. By continuing to use the site, you agree to this use of cookies and data.
  • In Portugal
  • List of Countries
  • For 7 days
  • Water Temperature
  • Satellite Maps
  • Weather Map
  • Weather Widgets
  • user-avatar
    Login

    Hourly Weather La Paz

    Today, 24 March, Sunday

    Time Temperature Precipitation Wind Pressure Humidity
    00:00 +7°C° 0 mm 2 mps 475 mmHg 88%
    01:00 +7°C° 0 mm 2 mps 475 mmHg 89%
    02:00 +7°C° 0 mm 1 mps 474 mmHg 89%
    03:00 +7°C° 0 mm 1 mps 474 mmHg 89%
    04:00 +7°C° 0 mm 1 mps 474 mmHg 89%
    05:00 +7°C° 0 mm 1 mps 474 mmHg 85%
    06:00 +7°C° 0 mm 0 mps 475 mmHg 81%
    07:00 +7°C° 0 mm 0 mps 475 mmHg 77%
    08:00 +10°C° 0 mm 1 mps 476 mmHg 69%
    09:00 +11°C° 0 mm 1 mps 477 mmHg 61%
    10:00 +13°C° 0 mm 1 mps 478 mmHg 53%
    11:00 +13°C° 0.2 mm 1 mps 477 mmHg 53%
    12:00 +14°C° 0.2 mm 2 mps 477 mmHg 52%
    13:00 +15°C° 0.2 mm 2 mps 477 mmHg 52%
    14:00 +14°C° 0.6 mm 2 mps 476 mmHg 55%
    15:00 +13°C° 0.6 mm 3 mps 476 mmHg 58%
    16:00 +13°C° 0.6 mm 3 mps 475 mmHg 62%
    17:00 +11°C° 0.7 mm 3 mps 475 mmHg 69%
    18:00 +10°C° 0.7 mm 3 mps 475 mmHg 76%
    19:00 +9°C° 0.7 mm 3 mps 475 mmHg 84%
    20:00 +9°C° 0.3 mm 3 mps 475 mmHg 85%
    21:00 +8°C° 0.3 mm 3 mps 475 mmHg 87%
    22:00 +8°C° 0.3 mm 3 mps 475 mmHg 88%
    23:00 +8°C° 0 mm 2 mps 475 mmHg 88%

    Tomorrow, 25 March, Monday

    Time Temperature Precipitation Wind Pressure Humidity
    00:00 +7°C° 0 mm 2 mps 475 mmHg 88%
    01:00 +7°C° 0 mm 2 mps 474 mmHg 88%
    02:00 +8°C° 0.1 mm 1 mps 474 mmHg 89%
    03:00 +7°C° 0.1 mm 1 mps 473 mmHg 90%
    04:00 +7°C° 0.1 mm 1 mps 473 mmHg 90%
    05:00 +7°C° 0.3 mm 1 mps 473 mmHg 88%
    06:00 +8°C° 0.3 mm 1 mps 474 mmHg 87%
    07:00 +8°C° 0.3 mm 1 mps 474 mmHg 85%
    08:00 +8°C° 0.7 mm 2 mps 475 mmHg 79%
    09:00 +9°C° 0.7 mm 2 mps 476 mmHg 73%
    10:00 +10°C° 0.7 mm 2 mps 476 mmHg 67%
    11:00 +10°C° 0.6 mm 2 mps 476 mmHg 66%
    12:00 +11°C° 0.6 mm 3 mps 475 mmHg 66%
    13:00 +11°C° 0.6 mm 3 mps 475 mmHg 65%
    14:00 +11°C° 0.5 mm 3 mps 475 mmHg 67%
    15:00 +11°C° 0.5 mm 3 mps 474 mmHg 68%
    16:00 +11°C° 0.5 mm 3 mps 473 mmHg 70%
    17:00 +10°C° 0.3 mm 3 mps 473 mmHg 76%
    18:00 +9°C° 0.3 mm 3 mps 473 mmHg 81%
    19:00 +8°C° 0.3 mm 3 mps 473 mmHg 87%
    20:00 +7°C° 0.1 mm 3 mps 473 mmHg 88%
    21:00 +7°C° 0.1 mm 3 mps 474 mmHg 88%
    22:00 +7°C° 0.1 mm 3 mps 474 mmHg 89%
    23:00 +7°C° 0.1 mm 3 mps 474 mmHg 90%

    Day after tomorrow, 26 March, Tuesday

    Time Temperature Precipitation Wind Pressure Humidity
    00:00 +6°C° 0.1 mm 2 mps 473 mmHg 91%
    01:00 +6°C° 0.1 mm 2 mps 473 mmHg 91%
    02:00 +6°C° 0.1 mm 2 mps 473 mmHg 92%
    03:00 +7°C° 0.1 mm 1 mps 472 mmHg 92%
    04:00 +7°C° 0.1 mm 1 mps 472 mmHg 92%
    05:00 +7°C° 0.1 mm 1 mps 473 mmHg 90%
    06:00 +7°C° 0.1 mm 1 mps 473 mmHg 88%
    07:00 +7°C° 0.1 mm 2 mps 474 mmHg 85%
    08:00 +8°C° 0.2 mm 2 mps 475 mmHg 80%
    09:00 +9°C° 0.2 mm 3 mps 475 mmHg 75%
    10:00 +10°C° 0.2 mm 3 mps 476 mmHg 70%
    11:00 +10°C° 0.2 mm 3 mps 476 mmHg 69%
    12:00 +11°C° 0.2 mm 3 mps 475 mmHg 68%
    13:00 +11°C° 0.2 mm 4 mps 475 mmHg 67%
    14:00 +11°C° 0.1 mm 4 mps 474 mmHg 69%
    15:00 +10°C° 0.1 mm 4 mps 474 mmHg 72%
    16:00 +10°C° 0.1 mm 4 mps 473 mmHg 74%
    17:00 +8°C° 0.1 mm 4 mps 473 mmHg 79%
    18:00 +7°C° 0.1 mm 4 mps 473 mmHg 83%
    19:00 +6°C° 0.1 mm 4 mps 473 mmHg 88%
    20:00 +6°C° 0 mm 4 mps 474 mmHg 88%
    21:00 +5°C° 0 mm 3 mps 474 mmHg 89%
    22:00 +5°C° 0 mm 3 mps 474 mmHg 89%
    23:00 +5°C° 0.1 mm 3 mps 474 mmHg 89%

    27 March, Wednesday

    Time Temperature Precipitation Wind Pressure Humidity
    00:00 +5°C° 0.1 mm 3 mps 474 mmHg 89%
    01:00 +6°C° 0.1 mm 2 mps 473 mmHg 89%
    02:00 +6°C° 0.1 mm 2 mps 473 mmHg 89%
    03:00 +6°C° 0.1 mm 2 mps 473 mmHg 89%
    04:00 +7°C° 0.1 mm 1 mps 473 mmHg 88%
    05:00 +6°C° 0.6 mm 2 mps 474 mmHg 88%
    06:00 +6°C° 0.6 mm 2 mps 474 mmHg 87%
    07:00 +6°C° 0.6 mm 2 mps 475 mmHg 86%
    08:00 +7°C° 0.9 mm 3 mps 475 mmHg 83%
    09:00 +7°C° 0.9 mm 3 mps 476 mmHg 80%
    10:00 +8°C° 0.9 mm 3 mps 476 mmHg 78%
    11:00 +7°C° 0.9 mm 4 mps 476 mmHg 75%
    12:00 +8°C° 0.9 mm 4 mps 476 mmHg 73%
    13:00 +8°C° 0.9 mm 4 mps 476 mmHg 70%
    14:00 +8°C° 0.5 mm 4 mps 475 mmHg 70%
    15:00 +8°C° 0.5 mm 4 mps 475 mmHg 71%
    16:00 +8°C° 0.5 mm 4 mps 475 mmHg 71%
    17:00 +7°C° 0.1 mm 4 mps 475 mmHg 76%
    18:00 +6°C° 0.1 mm 4 mps 475 mmHg 80%
    19:00 +5°C° 0.1 mm 3 mps 475 mmHg 85%
    20:00 +5°C° 0.1 mm 3 mps 475 mmHg 86%
    21:00 +5°C° 0.1 mm 3 mps 475 mmHg 88%
    22:00 +4°C° 0.1 mm 3 mps 475 mmHg 89%
    23:00 +5°C° 0.2 mm 2 mps 475 mmHg 88%

    28 March, Thursday

    Time Temperature Precipitation Wind Pressure Humidity
    00:00 +5°C° 0.2 mm 2 mps 475 mmHg 88%
    01:00 +5°C° 0.2 mm 2 mps 474 mmHg 88%
    02:00 +6°C° 0.5 mm 1 mps 474 mmHg 87%
    03:00 +6°C° 0.5 mm 1 mps 474 mmHg 87%
    04:00 +6°C° 0.5 mm 1 mps 474 mmHg 86%
    05:00 +7°C° 0.6 mm 1 mps 475 mmHg 85%
    06:00 +7°C° 0.6 mm 1 mps 475 mmHg 85%
    07:00 +7°C° 0.6 mm 1 mps 476 mmHg 84%
    08:00 +7°C° 0.4 mm 2 mps 476 mmHg 80%
    09:00 +8°C° 0.4 mm 2 mps 477 mmHg 76%
    10:00 +8°C° 0.4 mm 3 mps 477 mmHg 72%
    11:00 +9°C° 0.2 mm 3 mps 477 mmHg 70%
    12:00 +10°C° 0.2 mm 4 mps 477 mmHg 68%
    13:00 +11°C° 0.2 mm 4 mps 477 mmHg 66%
    14:00 +10°C° 0.1 mm 4 mps 476 mmHg 67%
    15:00 +10°C° 0.1 mm 4 mps 476 mmHg 69%
    16:00 +10°C° 0.1 mm 4 mps 475 mmHg 71%
    17:00 +7°C° 0 mm 4 mps 475 mmHg 76%
    18:00 +7°C° 0 mm 3 mps 475 mmHg 81%
    19:00 +5°C° 0 mm 3 mps 475 mmHg 86%
    20:00 +5°C° 0 mm 3 mps 475 mmHg 86%
    21:00 +5°C° 0 mm 2 mps 475 mmHg 87%
    22:00 +5°C° 0 mm 2 mps 475 mmHg 87%
    23:00 +5°C° 0 mm 2 mps 475 mmHg 84%

    29 March, Friday

    Time Temperature Precipitation Wind Pressure Humidity
    00:00 +5°C° 0 mm 2 mps 474 mmHg 80%
    01:00 +5°C° 0 mm 2 mps 474 mmHg 77%
    02:00 +5°C° 0 mm 1 mps 474 mmHg 76%
    03:00 +5°C° 0 mm 1 mps 473 mmHg 76%
    04:00 +4°C° 0 mm 1 mps 473 mmHg 76%
    05:00 +5°C° 0 mm 1 mps 474 mmHg 73%
    06:00 +6°C° 0 mm 1 mps 475 mmHg 71%
    07:00 +7°C° 0 mm 1 mps 476 mmHg 68%
    08:00 +7°C° 0 mm 2 mps 476 mmHg 65%
    09:00 +9°C° 0 mm 3 mps 477 mmHg 61%
    10:00 +10°C° 0 mm 3 mps 478 mmHg 58%
    11:00 +11°C° 0 mm 4 mps 477 mmHg 58%
    12:00 +12°C° 0 mm 4 mps 477 mmHg 57%
    13:00 +12°C° 0 mm 5 mps 477 mmHg 57%
    14:00 +12°C° 0 mm 5 mps 476 mmHg 59%
    15:00 +10°C° 0 mm 5 mps 476 mmHg 61%
    16:00 +10°C° 0 mm 5 mps 475 mmHg 64%
    17:00 +8°C° 0 mm 4 mps 475 mmHg 70%
    18:00 +8°C° 0 mm 3 mps 474 mmHg 75%
    19:00 +7°C° 0 mm 3 mps 474 mmHg 81%
    20:00 +7°C° 0.2 mm 3 mps 474 mmHg 80%
    21:00 +6°C° 0.2 mm 2 mps 475 mmHg 79%
    22:00 +6°C° 0.2 mm 2 mps 475 mmHg 78%
    23:00 +6°C° 0.4 mm 2 mps 475 mmHg 78%
    Show more